DMSP 5D-2 F13 DEB, 42320

Orbit data source: Space-Track

DMSP 5D-2 F13 DEB, 42320 is space debris in SSO originally from a launch on Fri, 24 Mar 1995 UTC launched from the Air Force Western Test Range (AFWTR). Debris objects in space refer to the collection of defunct objects orbiting the Earth. Examples of debris include non-operational satellites, rocket bodies, and fragments generated from explosions, collisions, or faulty payload assembly.

Loading next visibility...
Identifier
42320, 1995-015JN
Orbit
SSO
Country
Flag of USUS
Related business
Manufacturer
Unknown
Mission
Spacecraft
Bus & Motor
Unknown
Mass
Unknown
Launch date (UTC)
1995-03-24 (31 years ago)
Launch vehicle
Unknown
Launch site
Air Force Western Test Range (AFWTR)
Object type
Payload
Rocket body
Debris
Shape & HBR
Unknown shape, 0.1 m
Radar Cross Section
Small (<0.1 m²)

Expand to show TLE details & history
Last TLE update: 1 day ago

TLE from 1 day ago
0 DMSP 5D-2 F13 DEB
1 42320U 95015JN  25349.35224544  .00004244  00000-0  12821-2 0  9993
2 42320  98.6388  25.2610 0007309  80.4985 279.7030 14.42927811555657
Epoch: 2025-12-15T08:27Z
TLE epoch observation values (Epoch: 2025-12-15T08:27:14.006Z)
Latitude
-0.00007°
Longitude
174.20061°
Altitude
750.915 km
Speed
7.48 km/s
True Right ascension
01h 41m 02s
True Declination
0° 00' 00"
Sunlit
Object was in full shadow at epoch
Visualization orbit readout
Latitude
Unknown
Longitude
Unknown
Altitude
Unknown
Speed
Unknown
Apparent Right ascension
Unknown
Apparent Declination
Unknown
Sunlit
N/A
Visualization observer readout
Local Sidereal Time
08:41:36
Azimuth
Unknown
Elevation
Unknown
Doppler factor
Unknown
Orbital elements
Apogee altitude
751.173 km
Perigee altitude
740.759 km
Semi-major axis
7,124.103 km
Eccentricity
0.00073
Inclination
98.6388°
RAAN
25.261°
Arg. of periapsis
80.4985°
True anomaly
279.62043°
Mean anomaly
279.703°
Eccentric anomaly
279.66172°
Mean motion
3.60951 °/min
Orbital period
99.74 mins
BSTAR
0.0012821
Loading maneuver chart data...
Computing Atmospheric mass density...

Documentation

Showing up to 5 results
|